Home > Weather > Douala > Past weeks

Flag for Cameroon Past Weather in Douala, Cameroon — Yesterday and Last 2 Weeks

Now
81 °F

Thunderstorms. Partly sunny.


Feels Like: 85 °F
Forecast: 74 / 83 °F
Wind: 5 mph from Southwest

Location: Douala Obs.

Current Time: Jul 24, 2016 at 5:50:25 PM

Latest Report: Jul 24, 2016 at 5:00 PM


Visibility: N/A

Pressure: 29.86 "Hg

Humidity: 79%

Dew Point: 73 °F

Location of DoualaLocation

Past Weather in Douala — Graph

°F

Douala Temperature Yesterday

Maximum temperature yesterday: 84 °F (at 1:00 PM)
Minimum temperature yesterday: 75 °F (at 2:00 AM)
Average temperature yesterday: 78 °F

High & Low Weather Summary for the Past Weeks

 TemperatureHumidityPressure
High86 °F (Jul 10, 3:00 PM)100% (Jul 9, 11:00 PM)29.98 "Hg (Jul 9, 11:00 PM)
Low73 °F (Jul 16, 3:00 AM)66% (Jul 17, 4:00 PM)29.83 "Hg (Jul 14, 5:00 PM)
Average79 °F89%29.91 "Hg
* Reported Jul 9 4:00 PM — Jul 24 4:00 PM, Douala, Weather by CustomWeather, © 2016

Note: Actual official high and low records may vary slightly from our data, if they occured in-between our weather recording intervals... More about our weather records

Advertising

Douala Weather History for the Previous 24 Hours

Scroll right to see more
 ConditionsComfort  
Time TempWeatherWind HumidityBarometerVisibility
4:00 PM
Sun, Jul 24
84 °FThunderstorms. Partly sunny.5 mph70%29.86 "HgN/A
3:00 PM81 °FPartly sunny.5 mph84%29.86 "HgN/A
2:00 PM81 °FBroken clouds.6 mph79%29.89 "HgN/A
1:00 PM82 °FPartly sunny.5 mph74%29.92 "HgN/A
12:00 PM79 °FDrizzle. Partly sunny.8 mph84%29.95 "Hg4 mi
11:00 AM81 °FPartly sunny.3 mph89%29.95 "HgN/A
10:00 AM81 °FPartly sunny.No wind84%29.95 "HgN/A
9:00 AM79 °FMostly cloudy.1 mph89%29.95 "Hg5 mi
8:00 AM77 °FMostly cloudy.1 mph89%29.92 "Hg5 mi
7:00 AM75 °FThunderstorms. Partly sunny.No wind94%29.92 "Hg4 mi
6:00 AM75 °FThunderstorms. Passing clouds.No wind94%29.89 "HgN/A
5:00 AM75 °FThunderstorms. Passing clouds.No wind94%29.89 "HgN/A
4:00 AM75 °FThunderstorms. Passing clouds.3 mph94%29.89 "HgN/A
3:00 AM75 °FThunderstorms. Passing clouds.2 mph94%29.89 "HgN/A
2:00 AM77 °FThunderstorms. Passing clouds.No wind89%29.89 "HgN/A
1:00 AM75 °FThunderstorms. Passing clouds.No wind94%29.92 "HgN/A
12:00 AM77 °FThunderstorms. Passing clouds.3 mph94%29.95 "HgN/A
11:00 PM
Sat, Jul 23
77 °FThunderstorms. Passing clouds.5 mph94%29.95 "HgN/A
10:00 PM77 °FThunderstorms. Passing clouds.1 mph94%29.92 "Hg5 mi
9:00 PM77 °FThunderstorms. Passing clouds.2 mph94%29.92 "HgN/A
8:00 PM77 °FThunderstorms. Passing clouds.2 mph94%29.92 "HgN/A
7:00 PM77 °FThunderstorms. Passing clouds.1 mph94%29.89 "HgN/A
6:00 PM79 °FPartly sunny.6 mph89%29.89 "HgN/A
5:00 PM81 °FPartly sunny.7 mph84%29.89 "HgN/A
Weather by CustomWeather, © 2016

See weather overviewHow to use our weather pages